TimeCDT,TemperatureF,Dew PointF,Humidity,Sea Level PressureIn,VisibilityMPH,Wind Direction,Wind SpeedMPH,Gust SpeedMPH,PrecipitationIn,Events,Conditions,WindDirDegrees,DateUTC
12:53 AM,16.0,7.0,68,29.98,10.0,WNW,20.7,28.8,N/A,,Clear,300,2013-03-19 05:53:00
1:53 AM,15.1,7.0,70,29.99,10.0,WNW,16.1,-,N/A,,Clear,290,2013-03-19 06:53:00
2:53 AM,15.1,6.1,68,30.04,10.0,West,16.1,-,N/A,,Clear,280,2013-03-19 07:53:00
3:53 AM,15.1,7.0,70,30.04,10.0,WNW,20.7,29.9,N/A,,Clear,290,2013-03-19 08:53:00
4:53 AM,14.0,6.1,71,30.06,10.0,WNW,21.9,26.5,N/A,,Clear,290,2013-03-19 09:53:00
5:53 AM,12.9,6.1,74,30.07,10.0,WNW,17.3,24.2,N/A,,Clear,290,2013-03-19 10:53:00
6:53 AM,12.9,5.0,71,30.09,10.0,WNW,12.7,-,N/A,,Clear,290,2013-03-19 11:53:00
7:53 AM,12.9,5.0,71,30.12,10.0,WNW,16.1,-,N/A,,Clear,290,2013-03-19 12:53:00
8:53 AM,14.0,6.1,71,30.15,10.0,WNW,19.6,-,N/A,,Clear,290,2013-03-19 13:53:00
9:53 AM,16.0,7.0,68,30.18,10.0,WNW,19.6,-,N/A,,Clear,300,2013-03-19 14:53:00
10:53 AM,19.0,9.0,65,30.18,10.0,WNW,16.1,-,N/A,,Clear,300,2013-03-19 15:53:00
11:53 AM,21.9,10.0,60,30.20,10.0,WNW,17.3,-,N/A,,Clear,300,2013-03-19 16:53:00
12:53 PM,23.0,10.9,60,30.20,10.0,West,15.0,20.7,N/A,,Clear,280,2013-03-19 17:53:00
1:53 PM,24.1,12.9,62,30.21,10.0,West,15.0,-,N/A,,Partly Cloudy,280,2013-03-19 18:53:00
2:53 PM,26.1,14.0,60,30.21,10.0,West,16.1,23.0,N/A,,Mostly Cloudy,280,2013-03-19 19:53:00
3:53 PM,28.0,16.0,61,30.20,10.0,West,12.7,-,N/A,,Clear,280,2013-03-19 20:53:00
4:53 PM,28.9,18.0,64,30.20,10.0,WNW,12.7,-,N/A,,Clear,290,2013-03-19 21:53:00
5:53 PM,30.0,19.9,66,30.20,10.0,West,10.4,-,N/A,,Clear,280,2013-03-19 22:53:00
6:53 PM,30.0,19.9,66,30.20,10.0,WNW,11.5,-,N/A,,Clear,290,2013-03-19 23:53:00
7:53 PM,28.0,19.9,72,30.21,10.0,NNW,11.5,-,N/A,,Clear,330,2013-03-20 00:53:00
8:53 PM,28.0,19.9,72,30.22,10.0,WNW,12.7,-,N/A,,Overcast,300,2013-03-20 01:53:00
9:40 PM,26.6,21.2,80,30.19,8.0,NNW,19.6,-,0.00,Snow,Light Snow,340,2013-03-20 02:40:00
9:53 PM,26.1,21.0,81,30.24,5.0,NNW,18.4,24.2,0.00,Snow,Light Snow,330,2013-03-20 02:53:00
10:21 PM,24.8,17.6,74,30.20,10.0,NNW,20.7,28.8,0.00,,Overcast,340,2013-03-20 03:21:00
10:53 PM,21.0,14.0,74,30.27,10.0,NNW,19.6,26.5,0.00,,Partly Cloudy,340,2013-03-20 03:53:00
11:53 PM,18.0,9.0,68,30.27,10.0,NNW,17.3,25.3,N/A,,Clear,330,2013-03-20 04:53:00